Saint John's, Antigua

7:23 AM AST on February 21, 2017 (GMT -0400)
V C Bird International

Weather History for TAPA - October, 2012

Change the Weather History Date:

Saturday, October 13, 2012

  Actual Average Record
Temperature  
Mean Temperature 76 °F -  
Max Temperature 78 °F 84 °F 89 °F (2015)
Min Temperature 75 °F 75 °F 71 °F (2008)
Cooling Degree Days 12    
Growing Degree Days 26 (Base 50)    
Moisture  
Dew Point 75 °F    
Average Humidity 91    
Maximum Humidity 94    
Minimum Humidity 86    
Precipitation  
Precipitation 1.42 in - - ()
Sea Level Pressure  
Sea Level Pressure 29.78 in    
Wind  
Wind Speed 11 mph ()    
Max Wind Speed 23 mph    
Max Gust Speed 37 mph    
Visibility 5.9 miles    
Events Rain    
Averages and records for this station are not official NWS values.
T = Trace of Precipitation, MM = Missing Value Source: Averaged Metar Reports

Daily Weather History Graph

Daily Weather History Graph

Search for Another Location

Airport or City:

Trip Planner

Search our weather history database for the weather conditions in past years. The results will help you decide how hot, cold, wet, or windy it might be!

Date:

Astronomy

Oct. 13, 2012 Rise Set
Actual Time 5:59 AM AST 5:46 PM AST
Civil Twilight 5:37 AM AST 6:08 PM AST
Nautical Twilight 5:12 AM AST 6:33 PM AST
Astronomical Twilight 4:47 AM AST 6:58 PM AST
Moon 3:58 AM AST (10/13) 4:18 PM AST (10/13)
Length of Visible Light 12h 30m
Length of Day
11h 46m
Waning Crescent, 5% of the Moon is Illuminated
Oct 13
Waning Crescent
Oct 15
New
Oct 21
First Quarter
Oct 29
Full
Nov 6
Last Quarter

Hourly Weather History & Observations

Time (AST) Temp. Dew Point Humidity Pressure Visibility Wind Dir Wind Speed Gust Speed Precip Events Conditions
12:00 AM 77.0 °F 75.2 °F 94% 29.83 in 6.2 mi South 5.8 mph - N/A Rain Light Rain Showers
1:00 AM 77.0 °F 75.2 °F 94% 29.80 in 6.2 mi South 6.9 mph - N/A Rain Light Rain Showers
2:00 AM 77 °F 75 °F 92% 29.79 in 17 mi South 8.1 mph - - Rain Light Rain Showers
2:00 AM 77.0 °F 75.2 °F 94% 29.77 in 6.2 mi South 8.1 mph - N/A   Scattered Clouds
3:00 AM 77.0 °F 73.4 °F 89% 29.77 in 6.2 mi SSE 9.2 mph - N/A   Mostly Cloudy
4:00 AM 77.0 °F 75.2 °F 94% 29.77 in 6.2 mi SSE 16.1 mph - N/A Rain Light Rain Showers
5:00 AM 77 °F 74 °F 90% 29.79 in 16 mi SSE 9.2 mph - - Rain Light Rain
5:00 AM 77.0 °F 75.2 °F 94% 29.77 in 6.2 mi SSE 9.2 mph - N/A Rain Light Rain
6:00 AM 77.0 °F 75.2 °F 94% 29.80 in 6.2 mi South 12.7 mph - N/A Rain Light Rain
7:00 AM 77.0 °F 73.4 °F 89% 29.80 in 6.2 mi South 16.1 mph - N/A Rain Light Rain
8:00 AM 77.0 °F 75.2 °F 94% 29.80 in 5.0 mi SSE 18.4 mph - N/A Rain Light Rain
9:00 AM 77.0 °F 73.4 °F 89% 29.83 in 3.7 mi SSE 11.5 mph - N/A Rain Light Rain
10:00 AM 77.0 °F 75.2 °F 94% 29.83 in 3.7 mi South 23.0 mph - N/A Rain Light Rain
11:00 AM 78 °F 76 °F 90% 29.82 in 6 mi South 11.5 mph - - Rain Light Rain
11:00 AM 78.8 °F 75.2 °F 89% 29.80 in 6.2 mi South 11.5 mph - N/A Rain Light Rain
11:23 AM 77.0 °F 75.2 °F 94% 29.80 in 5.0 mi South 23.0 mph 36.8 mph N/A Rain Light Rain
11:41 AM 78.8 °F 75.2 °F 89% 29.80 in 5.0 mi South 18.4 mph - N/A Rain Light Rain
12:00 PM 77.0 °F 73.4 °F 89% 29.80 in 5.0 mi South 11.5 mph - N/A Rain Light Rain
1:00 PM 78.8 °F 75.2 °F 89% 29.77 in 3.7 mi South 16.1 mph - N/A Rain Light Rain
2:00 PM 76 °F 74 °F 91% 29.75 in 4 mi South 19.6 mph - - Rain Light Rain
2:00 PM 77.0 °F 73.4 °F 89% 29.74 in 3.7 mi South 19.6 mph - N/A Rain Light Rain
3:00 PM 77.0 °F 75.2 °F 94% 29.71 in 3.7 mi South 13.8 mph 28.8 mph N/A Rain Light Rain
4:00 PM 78.8 °F 75.2 °F 89% 29.74 in 3.7 mi South 17.3 mph - N/A Rain Light Rain
5:00 PM 77 °F 74 °F 86% 29.75 in 4 mi South 12.7 mph - - Rain Light Rain
5:00 PM 77.0 °F 73.4 °F 89% 29.74 in 3.7 mi South 12.7 mph 25.3 mph N/A Rain Light Rain
6:00 PM 77.0 °F 73.4 °F 89% 29.74 in 3.7 mi South 18.4 mph 31.1 mph N/A Rain Light Rain
7:00 PM 77.0 °F 73.4 °F 89% 29.74 in 6.2 mi South 16.1 mph - N/A Rain Light Rain
8:00 PM 78 °F 75 °F 87% 29.78 in 10 mi South 16.1 mph - - Rain Light Rain
8:00 PM 77.0 °F 75.2 °F 94% 29.77 in 6.2 mi South 16.1 mph - N/A Rain Light Rain
9:00 PM 78.8 °F 75.2 °F 89% 29.77 in 6.2 mi South 20.7 mph - N/A Rain Light Rain
10:00 PM 75.2 °F 73.4 °F 94% 29.77 in 6.2 mi WSW 11.5 mph - N/A Rain Light Rain
10:23 PM 75.2 °F 73.4 °F 94% 29.77 in 2.5 mi South 11.5 mph - N/A Rain Heavy Rain Showers
11:00 PM 77.0 °F 75.2 °F 94% 29.77 in 6.2 mi South 21.9 mph - N/A Rain Rain